| time (UTC) | temp C | wind direction | speed KPH | gust KPH | rain 1hr cm | rain 24hr cm | rain mn cm | humidity % | barometer mb |
| 20260505165312 | 25 | 149 | 3.2 | 11.3 | 0.00 | 0.00 | 0.00 | 81 | 1010.3 |
| 20260505164308 | 25 | 300 | 1.6 | 14.5 | 0.00 | 0.00 | 0.00 | 81 | 1010.3 |
| 20260505163306 | 25 | 186 | 3.2 | 11.3 | 0.00 | 0.00 | 0.00 | 81 | 1010.3 |
| 20260505162305 | 25 | 166 | 8.0 | 20.9 | 0.00 | 0.00 | 0.00 | 81 | 1010.4 |
| 20260505161258 | 25 | 97 | 6.4 | 14.5 | 0.00 | 0.00 | 0.00 | 81 | 1010.5 |
| 20260505160259 | 25 | 179 | 4.8 | 14.5 | 0.00 | 0.00 | 0.00 | 81 | 1010.4 |
| 20260505153306 | 25 | 142 | 4.8 | 19.3 | 0.00 | 0.00 | 0.00 | 82 | 1010.3 |
| 20260505152305 | 25 | 180 | 1.6 | 16.1 | 0.00 | 0.00 | 0.00 | 83 | 1010.2 |
| 20260505151319 | 24 | 247 | 6.4 | 20.9 | 0.00 | 0.00 | 0.00 | 84 | 1010.3 |
| 20260505150316 | 24 | 221 | 3.2 | 16.1 | 0.00 | 0.00 | 0.00 | 84 | 1010.2 |
| 20260505140318 | 23 | 209 | 4.8 | 16.1 | 0.00 | 0.00 | 0.00 | 85 | 1009.9 |
| 20260505124311 | 21 | 128 | 3.2 | 9.7 | 0.00 | 0.00 | 0.00 | 85 | 1009.8 |
| 20260505123312 | 21 | 140 | 3.2 | 6.4 | 0.00 | 0.00 | 0.00 | 86 | 1009.4 |
| 20260505122328 | 21 | 126 | 1.6 | 6.4 | 0.00 | 0.00 | 0.00 | 85 | 1009.4 |
| 20260505121323 | 21 | 125 | 3.2 | 6.4 | 0.00 | 0.00 | 0.00 | 85 | 1009.8 |
| 20260505120324 | 21 | 138 | 1.6 | 4.8 | 0.00 | 0.00 | 0.00 | 85 | 1009.8 |
| 20260505115319 | 21 | 125 | 1.6 | 4.8 | 0.00 | 0.00 | 0.00 | 86 | 1009.5 |
| 20260505114315 | 21 | 135 | 1.6 | 4.8 | 0.00 | 0.00 | 0.00 | 86 | 1009.7 |
| 20260505113315 | 20 | 142 | 1.6 | 4.8 | 0.00 | 0.00 | 0.00 | 86 | 1009.7 |
| 20260505112331 | 20 | 103 | 1.6 | 8.0 | 0.00 | 0.00 | 0.00 | 86 | 1009.4 |
| 20260505111325 | 20 | 136 | 1.6 | 4.8 | 0.00 | 0.00 | 0.00 | 86 | 1009.3 |
| 20260505110225 | 20 | 135 | 1.6 | 6.4 | 0.00 | 0.00 | 0.00 | 86 | 1009.4 |
| 20260505101228 | 20 | 178 | 1.6 | 6.4 | 0.00 | 0.00 | 0.00 | 86 | 1009.5 |
| 20260505100224 | 20 | 127 | 3.2 | 6.4 | 0.00 | 0.00 | 0.00 | 86 | 1009.5 |
| 20260505095224 | 20 | 150 | 3.2 | 12.9 | 0.00 | 0.00 | 0.00 | 86 | 1009.6 |
| 20260505094240 | 20 | 128 | 4.8 | 9.7 | 0.00 | 0.00 | 0.00 | 86 | 1009.6 |
| 20260505093237 | 20 | 123 | 1.6 | 6.4 | 0.00 | 0.00 | 0.00 | 86 | 1009.8 |
| 20260505092238 | 20 | 95 | 3.2 | 9.7 | 0.00 | 0.00 | 0.00 | 86 | 1009.9 |
| 20260505091233 | 21 | 169 | 0.0 | 4.8 | 0.00 | 0.00 | 0.00 | 86 | 1010.0 |
| 20260505090230 | 21 | 190 | 1.6 | 8.0 | 0.00 | 0.00 | 0.00 | 86 | 1010.0 |
| 20260505085224 | 21 | 120 | 3.2 | 9.7 | 0.00 | 0.00 | 0.00 | 85 | 1010.0 |
| 20260505084244 | 21 | 190 | 3.2 | 4.8 | 0.00 | 0.00 | 0.00 | 85 | 1010.0 |
| 20260505083240 | 21 | 157 | 1.6 | 8.0 | 0.00 | 0.00 | 0.00 | 85 | 1010.2 |
| 20260505082236 | 21 | 153 | 0.0 | 4.8 | 0.00 | 0.00 | 0.00 | 85 | 1010.4 |
| 20260505081235 | 21 | 169 | 1.6 | 4.8 | 0.00 | 0.00 | 0.00 | 85 | 1010.5 |
| 20260505080229 | 21 | 136 | 4.8 | 12.9 | 0.00 | 0.00 | 0.00 | 85 | 1010.2 |
| 20260505075244 | 21 | 200 | 4.8 | 6.4 | 0.00 | 0.00 | 0.00 | 84 | 1010.3 |
| 20260505074240 | 21 | 157 | 3.2 | 8.0 | 0.00 | 0.00 | 0.00 | 84 | 1010.3 |
| 20260505073240 | 21 | 137 | 1.6 | 6.4 | 0.00 | 0.00 | 0.00 | 84 | 1010.3 |
| 20260505072236 | 21 | 184 | 1.6 | 11.3 | 0.00 | 0.00 | 0.00 | 84 | 1010.6 |
| 20260505071231 | 21 | 178 | 3.2 | 8.0 | 0.00 | 0.00 | 0.00 | 84 | 1010.7 |
| 20260505070250 | 21 | 202 | 3.2 | 12.9 | 0.00 | 0.00 | 0.00 | 83 | 1010.7 |
| 20260505065247 | 21 | 188 | 1.6 | 11.3 | 0.00 | 0.00 | 0.00 | 83 | 1010.8 |
| 20260505064242 | 21 | 129 | 1.6 | 6.4 | 0.00 | 0.00 | 0.00 | 83 | 1011.0 |
| 20260505063243 | 21 | 182 | 3.2 | 8.0 | 0.00 | 0.00 | 0.00 | 83 | 1010.9 |
| 20260505062240 | 21 | 200 | 3.2 | 6.4 | 0.00 | 0.00 | 0.00 | 83 | 1010.9 |
| 20260505061235 | 21 | 155 | 1.6 | 11.3 | 0.00 | 0.00 | 0.00 | 83 | 1011.0 |
| 20260505060250 | 21 | 173 | 4.8 | 11.3 | 0.00 | 0.00 | 0.00 | 82 | 1011.1 |
| 20260505055251 | 21 | 142 | 3.2 | 11.3 | 0.00 | 0.00 | 0.00 | 82 | 1011.0 |
| 20260505054247 | 21 | 155 | 4.8 | 12.9 | 0.00 | 0.00 | 0.00 | 82 | 1011.1 |
| 20260505053243 | 21 | 215 | 3.2 | 12.9 | 0.00 | 0.00 | 0.00 | 82 | 1011.3 |
| 20260505052243 | 21 | 198 | 3.2 | 8.0 | 0.00 | 0.00 | 0.00 | 82 | 1011.5 |
| 20260505051240 | 21 | 184 | 3.2 | 6.4 | 0.00 | 0.00 | 0.00 | 82 | 1011.5 |
| 20260505050257 | 21 | 213 | 3.2 | 16.1 | 0.00 | 0.00 | 0.00 | 82 | 1011.3 |
| 20260505041247 | 21 | 179 | 3.2 | 11.3 | 0.00 | 0.00 | 0.00 | 81 | 1011.6 |
| 20260505040244 | 21 | 192 | 3.2 | 12.9 | 0.00 | 0.00 | 0.00 | 81 | 1011.5 |
| 20260505035300 | 21 | 137 | 6.4 | 11.3 | 0.00 | 0.00 | 0.00 | 80 | 1011.7 |
| 20260505034301 | 21 | 192 | 4.8 | 12.9 | 0.00 | 0.00 | 0.00 | 80 | 1011.7 |
| 20260505033257 | 21 | 133 | 3.2 | 11.3 | 0.00 | 0.00 | 0.00 | 80 | 1011.7 |
| 20260505032254 | 21 | 146 | 3.2 | 11.3 | 0.00 | 0.00 | 0.00 | 80 | 1011.9 |
| 20260505031250 | 21 | 153 | 4.8 | 12.9 | 0.00 | 0.00 | 0.00 | 80 | 1011.8 |
| 20260505030249 | 22 | 120 | 3.2 | 11.3 | 0.00 | 0.00 | 0.00 | 79 | 1011.8 |
| 20260505025305 | 22 | 158 | 4.8 | 8.0 | 0.00 | 0.00 | 0.00 | 79 | 1011.7 |
| 20260505024300 | 22 | 155 | 6.4 | 16.1 | 0.00 | 0.00 | 0.00 | 78 | 1011.6 |
| 20260505023300 | 22 | 147 | 6.4 | 16.1 | 0.00 | 0.00 | 0.00 | 78 | 1011.6 |
| 20260505022256 | 22 | 103 | 6.4 | 14.5 | 0.00 | 0.00 | 0.00 | 77 | 1011.6 |
| 20260505021252 | 22 | 171 | 4.8 | 17.7 | 0.00 | 0.00 | 0.00 | 76 | 1011.4 |
| 20260505020253 | 22 | 142 | 3.2 | 16.1 | 0.00 | 0.00 | 0.00 | 76 | 1011.4 |
| 20260505015308 | 22 | 168 | 4.8 | 11.3 | 0.00 | 0.00 | 0.00 | 75 | 1011.1 |
| 20260505014302 | 23 | 255 | 4.8 | 16.1 | 0.00 | 0.00 | 0.00 | 75 | 1011.2 |
| 20260505013258 | 23 | 144 | 4.8 | 17.7 | 0.00 | 0.00 | 0.00 | 75 | 1011.1 |
| 20260505012256 | 23 | 150 | 6.4 | 14.5 | 0.00 | 0.00 | 0.00 | 74 | 1011.1 |
| 20260505011312 | 23 | 153 | 6.4 | 19.3 | 0.00 | 0.00 | 0.00 | 74 | 1011.1 |
| 20260505010308 | 23 | 148 | 4.8 | 12.9 | 0.00 | 0.00 | 0.00 | 73 | 1010.9 |
| 20260505005309 | 23 | 163 | 3.2 | 14.5 | 0.00 | 0.00 | 0.00 | 72 | 1010.8 |
| 20260505004305 | 23 | 174 | 6.4 | 19.3 | 0.00 | 0.00 | 0.00 | 71 | 1011.1 |
| 20260505003302 | 23 | 73 | 3.2 | 9.7 | 0.00 | 0.00 | 0.00 | 71 | 1011.2 |
| 20260505002258 | 24 | 216 | 4.8 | 14.5 | 0.00 | 0.00 | 0.00 | 70 | 1011.1 |
| 20260505001259 | 24 | 196 | 6.4 | 19.3 | 0.00 | 0.00 | 0.00 | 69 | 1011.1 |
| 20260505000316 | 24 | 186 | 8.0 | 19.3 | 0.00 | 0.00 | 0.00 | 69 | 1011.2 |
| 20260504235312 | 25 | 207 | 6.4 | 30.6 | 0.00 | 0.00 | 0.00 | 68 | 1011.2 |
| 20260504234312 | 25 | 213 | 6.4 | 17.7 | 0.00 | 0.00 | 0.00 | 67 | 1011.1 |
| 20260504233308 | 25 | 151 | 8.0 | 20.9 | 0.00 | 0.00 | 0.00 | 67 | 1011.2 |
| 20260504232305 | 25 | 133 | 8.0 | 14.5 | 0.00 | 0.00 | 0.00 | 67 | 1011.4 |
| 20260504231306 | 25 | 203 | 6.4 | 24.1 | 0.00 | 0.00 | 0.00 | 66 | 1011.8 |
| 20260504230302 | 26 | 169 | 6.4 | 12.9 | 0.00 | 0.00 | 0.00 | 65 | 1011.7 |
| 20260504225319 | 26 | 94 | 4.8 | 22.5 | 0.00 | 0.00 | 0.00 | 65 | 1011.6 |
| 20260504224315 | 26 | 147 | 6.4 | 16.1 | 0.00 | 0.00 | 0.00 | 63 | 1011.6 |
| 20260504223315 | 26 | 131 | 4.8 | 20.9 | 0.00 | 0.00 | 0.00 | 62 | 1011.8 |
| 20260504222310 | 27 | 106 | 6.4 | 19.3 | 0.00 | 0.00 | 0.00 | 61 | 1011.8 |
| 20260504221306 | 27 | 217 | 6.4 | 20.9 | 0.00 | 0.00 | 0.00 | 59 | 1011.8 |
| 20260504220306 | 27 | 150 | 4.8 | 16.1 | 0.00 | 0.00 | 0.00 | 59 | 1011.9 |
| 20260504215323 | 27 | 145 | 4.8 | 14.5 | 0.00 | 0.00 | 0.00 | 56 | 1012.0 |
| 20260504214320 | 27 | 158 | 4.8 | 14.5 | 0.00 | 0.00 | 0.00 | 57 | 1012.1 |
| 20260504213316 | 27 | 160 | 6.4 | 16.1 | 0.00 | 0.00 | 0.00 | 55 | 1012.2 |
| 20260504212317 | 27 | 196 | 6.4 | 14.5 | 0.00 | 0.00 | 0.00 | 55 | 1012.3 |
| 20260504211313 | 27 | 150 | 4.8 | 17.7 | 0.00 | 0.00 | 0.00 | 55 | 1012.7 |
| 20260504210308 | 27 | 205 | 8.0 | 16.1 | 0.00 | 0.00 | 0.00 | 55 | 1012.8 |
| 20260504205327 | 27 | 208 | 6.4 | 20.9 | 0.00 | 0.00 | 0.00 | 54 | 1012.9 |
| 20260504204323 | 27 | 153 | 6.4 | 16.1 | 0.00 | 0.00 | 0.00 | 53 | 1013.1 |
| 20260504203320 | 27 | 221 | 6.4 | 16.1 | 0.00 | 0.00 | 0.00 | 53 | 1013.2 |
| 20260504202320 | 27 | 227 | 6.4 | 20.9 | 0.00 | 0.00 | 0.00 | 54 | 1013.3 |
| 20260504201317 | 27 | 127 | 9.7 | 17.7 | 0.00 | 0.00 | 0.00 | 53 | 1013.8 |
| 20260504200313 | 27 | 121 | 3.2 | 16.1 | 0.00 | 0.00 | 0.00 | 53 | 1013.9 |
| 20260504195329 | 27 | 218 | 6.4 | 16.1 | 0.00 | 0.00 | 0.00 | 51 | 1013.9 |
| 20260504194329 | 27 | 150 | 8.0 | 16.1 | 0.00 | 0.00 | 0.00 | 50 | 1014.1 |
| 20260504193323 | 27 | 180 | 4.8 | 19.3 | 0.00 | 0.00 | 0.00 | 51 | 1014.1 |
| 20260504192320 | 27 | 133 | 6.4 | 17.7 | 0.00 | 0.00 | 0.00 | 50 | 1014.3 |
| 20260504191320 | 27 | 148 | 8.0 | 27.4 | 0.00 | 0.00 | 0.00 | 51 | 1014.5 |
| 20260504190318 | 27 | 154 | 4.8 | 9.7 | 0.00 | 0.00 | 0.00 | 52 | 1014.5 |
| 20260504185333 | 26 | 88 | 3.2 | 17.7 | 0.00 | 0.00 | 0.00 | 52 | 1014.7 |
| 20260504184327 | 26 | 196 | 6.4 | 20.9 | 0.00 | 0.00 | 0.00 | 52 | 1014.8 |
| 20260504183326 | 26 | 182 | 4.8 | 16.1 | 0.00 | 0.00 | 0.00 | 53 | 1014.9 |
| 20260504182320 | 26 | 217 | 8.0 | 24.1 | 0.00 | 0.00 | 0.00 | 51 | 1015.0 |
| 20260504181335 | 26 | 198 | 6.4 | 12.9 | 0.00 | 0.00 | 0.00 | 54 | 1015.3 |
| 20260504180334 | 26 | 126 | 4.8 | 17.7 | 0.00 | 0.00 | 0.00 | 54 | 1015.4 |
| 20260504175329 | 26 | 152 | 6.4 | 14.5 | 0.00 | 0.00 | 0.00 | 53 | 1015.4 |
| 20260504174323 | 26 | 138 | 4.8 | 11.3 | 0.00 | 0.00 | 0.00 | 55 | 1015.6 |
| 20260504173321 | 25 | 142 | 8.0 | 22.5 | 0.00 | 0.00 | 0.00 | 55 | 1015.8 |
| 20260504172335 | 25 | 165 | 8.0 | 19.3 | 0.00 | 0.00 | 0.00 | 54 | 1015.9 |
| 20260504171331 | 25 | 199 | 3.2 | 17.7 | 0.00 | 0.00 | 0.00 | 55 | 1016.0 |
| 20260504170326 | 25 | 189 | 9.7 | 22.5 | 0.00 | 0.00 | 0.00 | 54 | 1016.2 |